Regional Weather Roundup
Issued by NWS Newport/Morehead, NC

Home | Current Version | Previous Version | Text Only | Print | Product List | Glossary On
Versions: 1 2 3 4 5 6 7 8 9 10 11 12 13 14 15 16 17 18 19 20 21 22 23 24 25 26 27 28 29 30 31 32 33 34 35 36 37 38 39 40 41 42 43 44 45 46 47 48 49 50
000
ASUS42 KMHX 250025
RWRMHX
WEATHER ROUNDUP FOR EASTERN NORTH CAROLINA
NATIONAL WEATHER SERVICE NEWPORT/MOREHEAD CITY NC
800 PM EDT TUE MAY 24 2016

NOTE: "FAIR" INDICATES FEW OR NO CLOUDS BELOW 12,000 FEET
WITH NO SIGNIFICANT WEATHER AND/OR OBSTRUCTIONS TO VISIBILITY

NCZ015>017-031-032-045>047-102-103-250100-
NORTH COAST

CITY           SKY/WX    TMP DP  RH WIND       PRES   REMARKS
EDENTON        CLEAR     75  64  67 CALM      30.07R
ELIZABETH CITY CLEAR     74  58  57 SW5       30.05R
KITTY HAWK     CLEAR     73  58  58 S3        30.05S
MANTEO         PTCLDY    73  65  74 S7        30.07R

$$

NCZ045>047-081-094-103-104-250100-
CENTRAL COAST

CITY           SKY/WX    TMP DP  RH WIND       PRES   REMARKS
FRISCO         CLEAR     69  61  75 SW12      30.10R

$$

NCZ095-097-098-100-101-250100-
SOUTHERN COAST

CITY           SKY/WX    TMP DP  RH WIND       PRES   REMARKS
BEAUFORT       CLEAR     70  59  68 SW14      30.11R
CEDAR ISLAND   NOT AVBL
JACKSONVILLE   CLEAR     71  57  61 S7        30.10R
PINEY ISLAND   CLEAR    N/A N/A N/A SW10      30.10R
WILMINGTON     CLEAR     73  55  53 SW8       30.11R


$$

NCZ011>013-027>030-043-044-078>080-089-090>093-098-250100-
COASTAL PLAIN

CITY           SKY/WX    TMP DP  RH WIND       PRES   REMARKS
AHOSKIE        CLEAR     70  59  66 CALM      30.07R
CLINTON        CLEAR     74  59  59 CALM      30.10R
ELIZABETHTOWN  CLEAR     77  58  51 CALM      30.11R
GOLDSBORO      CLEAR     78  53  41 SW6       30.07R
GREENVILLE     CLEAR     72  59  64 CALM      30.09R
HAVELOCK       PTCLDY    70  56  61 S7        30.11R
KENANSVILLE    CLEAR     69  57  66 CALM      30.10S
KINSTON        CLEAR     73  57  56 SW6       30.09R
NEW BERN       CLEAR     71  57  61 S8        30.11R
RICHLANDS      CLEAR     72  60  66 S7        30.11R
ROCKY MOUNT    CLEAR     73  58  59 CALM      30.07R
WASHINGTON     CLEAR     74  56  52 CALM      30.07R
WHITEVILLE     CLEAR     74  57  55 S6        30.12R

$$

AMZ130-135-150-152-154-156-158-170-250-252-270-ANZ085-086-088-633-658-670-250100-
MARINE OBSERVATIONS

STATION/POSITION TIME  TEMP    WIND        PRES    WAVE   SWELL
                       AIR SEA DIR/SP/G            HT/PER HT/PER
                 (UTC) (F)     (DEG/KT/KT) (MB)    (FT/S) (FT/S)
CHESAPEAKE LIGHT 0000   69     150/  9/ 10 1018.1
64 E VA BEACH    2350   63 57  210/  8/ 10 1017.7    3/ 9   3/ 9
DUCK             0000   74                 1017.0
2 E DUCK         2311      63                N/A     2/ 9
OREGON INLET     0000   70                 1018.0
13E OREGON INLT  0000      63                N/A     3/ 8   2/ 8
HATTERAS CG      0000   69                 1018.6
DIAMOND BUOY     2350   72 79  240/ 17/ 21 1018.9    3/10   2/10
CAPE LOOKOUT     0000   70     220/  9/ 12 1019.6
BEAUFORT LAB     0000   71                 1019.0
30 SE NEW RVR IN 2325      73                N/A     4/ 4
27 SE WRIGHTSVLE 0008   73 73  220/ 12/ 16 1019.6
5 SE WRIGHTSVLE  2308   73 72  210/ 14/ 19 1020.1
225 S CAPE HAT   2350   73 78   20/  6/  8 1021.0    5/ 9   5/ 9
41 SE CHARLESTON 2350   76 76  160/ 10/ 10 1020.2    2/ 9   2/ 9

$$




USA.gov is the U.S. government's official web portal to all federal, state and local government web resources and services.